SCP
0 0 0 0 0 0 0 0 0 0 0 0 0 0 0 0 0 0 0 0 0 0 0 0 0 0 0 0 0 0 0 0 0 0 0 0 0 0 0 0 0 0 0 0 0 0 0
0 0 0 0 0 0 0 0 0 0 0 0 0 0 0 0 0 0 0 0 0 0 0 0 0 0 0 0 0 0 0 0 0 0 0 0 0 0 0 0 0 0 0 0 0 0 0
0 0 0 0 0 0 0 0 0 0 0 0 0 0 0 0 0 0 0 0 0 0 0 0 0 0 0 0 0 0 0 0 0 0 0 0 0 0 0 0 0 0 0 0 0 0 0
0 0 0 0 0 0 0 0 0 0 0 0 0 0 0 0 0 0 0 0 0 0 0 0 0 0 0 0 0 0 0 0 0 0 0 0 0 0 0 0 0 0 0 0 0 0 0
-0 -0 -0 -0 -0 -0 -0 -0 -0 -0 -0 -0 -0 -0 -0 -0 0 0 0 0 -0 -0 -0 -0 0 0 0 -0 0 0 0 0 0 0 0 0 0 0 0 0 0 0 0 0 0 0 0
-0 -0 -0 -0 -0 -0 -0 -0 -0 -0 -0 -0 -0 0 0 0 0 0 0 0 -0 -0 -0 -0 -0 0 -0 0 0 0 0 0 0 0 0 0 0 0 0 0 0 0 0 0 0 0 0
-0 -0 -0 -0 -0 -0 -0 -0 -0 -0 0 0 0 0 0 0 0 0 0 0 0 0 -0 -0 0 0 0 0 -0 0 0 0 0 0 0 0 0 0 0 0 0 0 0 0 0 0 0
-0 -0 -0 -0 -0 -0 -0 -0 -0 -0 0 0 0 0 0 0 0 -0 -0 -0 0 0 0 0 -0 -0 0 -0 0 0 0 0 0 0 0 0 0 0 0 0 0 0 0 0 0 0 0
-0 -0 -0 -0 -0 -0 -0 -0 -0 -0 0 0 0 -0 -0 -0 -0 -0 -0 0 0 -0 0 -0 -0 -0 -0 -0 0 0 0 0 0 0 0 0 0 0 0 0 0 0 0 0 0 0 0
-0 -0 -0 -0 -0 -0 -0 -0 -0 -0 -0 -0 -0 -0 -0 -0 -0 -0 -0 0 -0 0 -0 -0 -0 -0 -0 0 0 -0 0 -0 0 0 0 0 0 0 0 0 0 0 0 0 0 0 0
0 0 0 0 0 0 -0 -0 -0 -0 0 -0 0 -0 -0 0 0 0 0 0 0 0 -0 -0 -0 0 -0 -0 0 -0 0 -0 0 0 0 0 0 0 0 0 0 0 0 0 0 0 0
-0 0 0 0 0 0 0 0 0 0 0 0 0 0 -0 0 0 0 0 0 0 -0 -0 -0 0 0 -0 -0 -0 0 -0 0 0 -0 0 0 0 0 0 0 0 0 0 0 0 0 0
-0 0 0 0 0 0 0 0 0 0 0 0 0 0 -0 0 0 0 -0 -0 0 -0 -0 -0 -0 -0 -0 0 -0 -0 0 0 -0 0 0 0 0 0 0 0 0 0 0 0 0 0 0
0 0 0 0 0 0 0 0 0 0 0 0 0 -0 0 0 0 0 0 -0 0 -0 0 -0 0 0 0 0 -0 0 0 0 0 0 0 0 0 0 0 0 0 0 0 0 0 0 0
0 0 0 0 0 0 0 0 0 0 0 0 0 0 0 0 0 0 0 0 0 -0 0 -0 -0 -0 -0 -0 0 0 0 0 0 0 0 0 0 0 -0 0 0 0 0 0 0 0 0
-0 0 0 0 0 0 0 0 0 0 0 0 0 0 0 0 0 0 0 0 0 0 0 0 -0 -0 -0 -0 -0 0 0 0 0 0 0 -0 0 0 0 0 0 0 0 0 0 0 0
0 0 0 0 0 0 0 0 0 0 0 0 0 0 0 0 0 0 0 0 0 0 0 -0 -0 -0 -0 -0 -0 0 0 0 0 0 0 0 0 0 0 0 0 0 0 0 0 0 0
0 0 0 0 0 0 0 0 0 0 0 0 0 0 0 0 0 0 0 0 0 0 0 0 -0 -0 0 -0 -0 -0 0 0 0 0 0 0 0 -0 0 0 0 0 0 0 0 0 0
0 0 0 0 0 0 0 0 0 0 0 0 0 0 0 0 0 0 0 0 -0 -0 0 -0 -0 -0 -0 -0 -0 -0 -0 0 -0 0 0 0 0 -0 0 0 0 0 0 0 0 0 0
0 0 0 0 0 0 0 0 0 0 0 0 0 0 0 0 0 0 0 0 0 0 0 -0 -0 -0 -0 -0 -0 -0 -0 -0 -0 0 -0 0 0 0 0 0 0 0 0 0 0 0 0
0 0 0 0 0 0 0 0 0 -0 -0 0 0 0 0 0 0 0 0 0 0 0 0 -0 -0 -0 -0 -0 -0 -0 -0 -0 0 -0 -0 -0 0 0 -0 -0 0 0 0 0 0 0 0
0 0 0 0 0 0 0 0 0 0 -0 0 0 0 0 0 0 0 0 0 0 -0 0 -0 -0 -0 -0 -0 -0 0 -0 0 0 -0 0 -0 0 0 0 -0 0 0 0 0 0 0 -0
0 0 0 0 0 0 0 0 0 0 0 0 0 0 0 0 0 0 0 0 0 0 0 -0 -0 -0 -0 0 0 0 -0 -0 -0 -0 -0 0 -0 0 -0 -0 0 0 0 0 0 0 0
0 0 0 0 0 0 0 0 0 0 0 0 0 0 0 0 0 0 0 0 0 0 0 -0 -0 0 -0 0 -0 -0 -0 -0 -0 -0 -0 -0 0 0 -0 -0 0 0 0 0 0 0 0
0 0 0 0 0 0 0 0 0 0 0 0 0 0 0 0 0 0 0 0 0 0 0 -0 -0 -0 0 0 -0 0 0 -0 -0 -0 -0 0 0 0 0 -0 0 0 0 0 0 0 0
0 0 0 0 0 0 0 0 0 0 0 0 0 0 0 0 0 0 0 0 0 0 0 -0 -0 0 0 0 0 -0 0 -0 -0 -0 0 -0 -0 -0 -0 -0 0 0 0 0 0 0 0
0 0 0 0 0 0 0 0 0 0 0 0 0 0 0 0 0 0 0 0 0 0 0 -0 0 -0 -0 0 0 0 0 0 -0 0 0 -0 -0 -0 -0 -0 0 0 0 0 0 0 0
0 0 0 0 0 0 0 0 0 0 0 0 0 0 0 0 0 0 0 0 0 0 0 0 0 -0 0 0 -0 0 -0 0 0 0 0 0 0 -0 -0 -0 0 0 0 0 0 0 0
0 0 0 0 0 0 0 0 0 0 0 0 0 0 0 0 0 0 0 0 0 0 0 0 0 0 0 0 -0 -0 0 -0 0 0 -0 0 0 0 0 0 0 0 0 0 0 0 0
Wind_Speed_500mb
35 35 34 34 35 35 35 35 36 36 37 37 37 36 36 36 37 38 39 40 42 44 44 44 42 39 36 28 44 32 44 33 13 24 43 59 63 66 59 59 63 61 59 75 79 77 75
34 35 36 37 39 39 38 38 38 38 37 37 38 40 43 45 46 44 42 39 38 39 42 46 46 43 30 47 24 32 39 32 32 33 45 47 60 68 69 68 62 69 72 74 83 80 79
33 34 36 37 37 38 38 39 38 38 37 37 38 41 44 46 46 46 47 46 43 42 41 41 44 41 43 62 34 31 29 33 36 40 45 44 45 60 70 64 85 82 68 64 63 73 64
35 36 38 38 39 39 39 39 40 39 37 35 37 40 42 42 42 42 44 43 43 44 44 38 38 31 39 36 36 40 45 51 53 50 49 45 43 48 62 75 75 64 62 59 59 58 74
37 39 40 41 39 38 38 39 40 43 44 46 47 48 50 53 56 57 55 49 34 31 35 36 26 20 36 20 25 32 35 55 49 49 52 52 50 50 42 42 43 57 47 68 68 59 61
40 42 43 42 41 41 41 42 42 45 48 50 52 53 55 57 58 56 57 49 30 33 20 16 22 24 40 29 25 10 8 11 36 43 48 55 47 39 36 37 47 46 61 69 57 52 54
40 44 43 43 43 42 42 44 46 49 51 53 54 55 55 58 59 54 46 40 30 23 10 40 37 31 50 31 11 21 22 24 27 34 40 55 34 50 85 60 60 56 64 65 58 55 56
38 41 43 42 43 45 46 47 48 49 50 53 56 60 62 63 55 24 25 30 36 32 48 49 70 82 74 65 70 62 45 42 34 37 38 39 57 78 43 63 66 66 62 63 55 52 48
39 41 43 45 45 46 47 49 50 50 51 54 58 62 58 56 37 22 30 27 37 37 41 80 93 80 68 59 65 56 50 56 45 43 41 48 74 46 59 63 58 64 65 54 60 51 53
40 42 43 45 45 45 46 48 51 52 53 54 56 59 49 43 17 32 26 34 36 35 18 21 14 15 38 18 35 39 42 53 48 52 46 48 52 64 61 67 62 57 56 56 54 46 36
40 41 44 44 45 46 46 49 52 53 53 53 57 54 31 35 29 25 32 37 33 21 12 23 34 17 36 32 7 11 12 37 39 43 43 67 48 53 63 72 58 68 48 52 54 47 42
40 43 44 45 47 48 48 50 54 55 54 55 54 41 29 25 30 26 39 31 25 9 7 18 21 25 32 39 42 14 23 15 35 35 42 58 66 56 58 55 63 51 55 54 50 36 34
39 42 44 46 48 49 50 52 56 56 56 55 48 27 25 23 33 35 29 26 11 4 36 18 31 24 24 29 33 23 31 24 23 15 38 47 51 57 60 56 58 61 42 33 34 33 43
41 41 42 46 49 50 53 55 58 57 55 55 33 20 21 17 28 24 18 4 10 22 30 39 39 44 38 34 33 37 34 24 31 27 20 24 29 55 58 64 52 61 50 30 49 31 39
44 44 43 45 48 50 53 57 58 57 52 52 30 19 15 16 20 15 21 8 7 27 34 38 40 33 37 34 32 43 39 18 30 5 15 18 30 47 57 57 56 53 54 55 45 42 32
45 46 46 46 45 49 56 58 58 57 49 38 27 16 16 20 17 15 9 22 27 34 36 35 35 6 35 49 14 20 30 7 19 2 9 13 34 42 49 54 65 56 44 50 33 46 41
47 47 46 44 45 52 57 61 57 54 48 29 21 11 5 13 17 19 11 29 42 46 42 36 39 18 34 39 34 34 19 12 7 11 17 26 25 47 43 47 56 47 47 53 36 37 32
49 48 46 44 47 53 58 61 58 52 52 29 15 11 11 8 11 12 18 41 47 34 41 29 30 39 20 44 38 38 27 15 15 19 19 32 14 33 45 54 51 58 50 45 30 48 34
49 50 49 47 45 51 59 62 56 42 42 38 19 30 3 3 7 17 36 35 43 37 32 40 33 35 19 29 15 26 19 12 11 11 5 12 13 19 41 37 41 53 57 49 42 26 38
49 51 52 52 48 47 56 62 58 38 28 28 17 12 12 23 14 18 34 32 36 46 26 33 35 35 30 30 34 18 25 9 16 24 23 5 13 32 22 18 33 26 57 62 48 38 36
49 51 52 53 54 49 52 59 59 40 18 17 12 12 15 14 25 23 26 35 38 33 30 44 21 31 36 32 39 34 21 28 18 3 6 5 15 35 39 21 28 45 53 62 55 49 43
47 50 51 53 55 55 48 54 57 43 21 13 21 16 25 42 36 27 25 29 37 40 37 30 25 36 36 36 34 36 38 28 18 16 12 15 9 36 34 24 31 48 54 46 59 54 53
47 47 49 51 54 57 52 46 54 47 24 12 20 23 14 26 31 24 15 35 39 38 22 42 38 37 32 30 49 55 59 50 41 37 28 23 15 15 23 13 17 33 47 44 52 47 54
48 48 49 51 53 55 53 43 50 44 25 18 24 28 16 20 24 28 32 27 41 46 31 48 36 25 31 54 57 58 56 51 39 38 36 27 22 7 7 20 10 19 27 43 47 46 43
48 50 53 52 52 54 52 44 45 48 34 24 21 23 9 15 42 28 42 35 42 46 38 42 38 40 49 42 26 20 18 24 34 42 34 22 15 9 3 8 31 23 23 25 22 15 38
49 51 53 55 52 51 53 49 48 45 46 31 22 32 18 16 11 51 38 48 25 27 26 44 45 50 27 7 12 16 6 7 7 17 23 20 12 7 2 5 11 16 40 65 32 21 33
51 52 53 52 52 50 51 51 51 48 43 38 32 25 29 20 45 41 38 26 28 20 14 44 44 32 22 12 5 7 8 9 11 14 10 5 5 9 6 2 14 36 57 60 6 6 20
57 54 51 51 51 50 51 54 51 46 46 46 41 24 32 22 65 39 31 48 47 30 7 22 25 17 9 13 8 9 8 10 7 8 9 7 9 2 6 7 9 45 32 18 15 10 27
61 58 52 50 53 51 52 52 52 48 51 44 40 16 31 42 70 74 51 47 38 28 23 3 9 23 9 6 8 8 5 6 11 5 15 7 8 7 11 5 14 37 22 41 39 37 34
Wind_Direction_500mb
34 26 23 19 15 10 5 0 358 354 351 351 347 344 339 335 331 327 324 320 317 315 311 306 304 302 304 255 246 265 295 302 285 227 232 235 235 235 239 236 235 237 242 246 250 254 255
25 22 19 19 15 11 7 3 358 354 351 349 346 343 340 337 334 332 329 324 317 310 306 304 300 298 286 265 269 262 261 253 247 240 239 233 235 236 247 241 241 241 245 250 258 260 260
26 24 22 19 15 12 9 5 1 356 351 349 348 344 341 338 334 332 328 325 321 312 302 292 292 292 271 256 261 251 250 252 249 245 244 244 239 233 245 249 251 252 256 262 255 259 266
27 24 19 13 8 6 5 6 5 2 358 354 346 343 340 337 333 328 322 319 315 312 305 295 283 281 264 276 264 263 261 260 254 248 246 246 257 273 256 252 262 254 257 260 253 254 255
27 22 16 8 7 5 4 3 2 1 357 352 348 345 342 342 339 334 326 321 307 299 300 301 280 230 275 283 261 260 253 249 245 245 244 243 248 255 265 246 244 245 248 248 249 248 261
22 17 13 13 12 10 7 6 3 359 354 349 346 342 338 338 335 330 324 325 326 292 288 272 257 254 256 271 263 219 269 257 234 244 246 231 229 239 242 235 226 222 236 242 257 251 251
19 18 17 16 15 14 13 10 4 358 352 347 342 338 334 332 334 334 334 357 346 305 235 264 276 219 286 286 242 242 274 271 252 240 236 225 217 222 220 220 240 236 239 248 254 253 247
19 18 17 15 13 11 9 5 359 355 351 347 343 339 333 332 333 344 348 327 323 307 296 278 263 263 261 269 269 264 259 251 249 239 229 227 220 226 232 227 234 244 254 253 261 261 258
16 14 14 12 8 6 1 356 352 349 348 346 341 337 334 333 338 2 322 327 328 316 295 283 265 258 259 250 248 255 243 241 240 245 235 225 235 227 234 234 234 234 236 247 258 268 270
12 9 9 7 3 2 358 353 350 349 347 343 340 340 338 348 345 326 324 330 326 330 291 280 233 225 228 235 256 249 237 230 235 238 248 247 240 240 227 237 230 240 233 243 248 253 260
5 3 5 1 357 357 355 353 350 348 346 341 342 342 353 349 350 345 331 326 322 324 274 37 18 18 344 215 156 208 221 239 240 243 231 242 242 234 239 237 229 244 243 245 244 250 257
2 1 0 355 353 351 352 353 349 349 346 343 342 343 355 353 325 325 321 317 320 256 257 4 9 328 346 338 307 305 202 227 268 243 245 253 249 256 245 241 247 238 243 248 255 254 246
1 3 360 355 352 349 351 354 351 349 348 342 344 350 359 354 332 321 325 326 286 303 318 351 343 335 302 284 288 246 246 256 224 267 254 246 243 251 250 251 231 240 229 234 236 235 242
355 357 356 351 349 347 350 355 351 350 350 339 348 345 350 348 331 336 340 305 265 281 1 350 343 333 319 315 301 284 278 262 267 259 257 276 270 225 239 241 235 224 233 220 219 216 245
358 358 354 352 351 350 353 354 350 350 353 341 347 325 330 319 337 328 338 282 34 318 353 340 335 346 323 338 332 306 268 257 274 125 275 315 278 261 223 243 239 230 226 236 244 234 251
359 357 355 356 357 355 355 355 351 349 355 348 348 317 285 322 319 320 293 283 295 348 335 327 326 280 308 318 330 313 317 100 296 289 295 280 288 280 286 222 245 243 219 226 223 234 239
0 359 358 0 359 356 355 354 356 352 356 350 327 250 273 329 327 282 286 305 333 327 304 321 315 293 322 323 315 326 274 174 232 280 289 269 260 271 288 266 215 230 235 217 237 227 238
0 359 358 358 355 355 354 354 356 354 354 -0 301 277 186 346 291 268 296 332 319 320 325 314 315 319 0 306 306 295 242 9 239 327 303 295 279 258 267 273 217 232 224 230 218 219 236
359 358 356 353 351 353 354 354 354 357 353 349 302 296 209 297 328 321 315 319 320 335 343 325 323 311 318 299 320 319 339 173 227 274 289 344 244 260 258 267 259 229 221 233 237 240 218
355 356 355 354 348 347 352 355 353 359 351 343 302 310 355 333 328 306 321 318 317 327 328 319 309 312 310 325 288 271 333 276 248 297 268 337 259 263 253 314 339 284 211 230 227 211 227
350 352 354 354 353 347 347 353 356 355 1 339 286 338 357 300 324 312 305 292 315 335 340 330 316 325 325 311 310 322 310 312 314 249 237 205 269 288 257 256 304 302 284 224 223 203 222
346 347 350 352 351 351 345 348 352 354 360 331 335 340 330 302 307 306 313 319 323 328 327 315 319 317 312 310 310 315 309 297 289 271 243 219 282 301 281 215 273 288 275 266 220 200 221
344 343 343 347 349 349 346 345 350 353 357 329 337 324 308 292 305 327 320 325 313 329 307 308 307 314 305 309 311 303 294 285 280 277 263 280 302 320 249 197 321 276 236 240 211 204 213
343 342 342 342 344 346 348 344 349 347 342 303 308 314 294 294 312 325 334 317 320 322 316 314 324 307 310 319 308 295 273 260 250 253 256 262 285 270 10 61 266 242 244 251 206 197 209
332 337 340 338 339 341 344 338 344 347 332 309 295 293 284 288 310 310 335 333 320 320 315 312 328 332 325 324 315 311 317 240 232 230 231 227 257 275 206 200 295 324 0 337 261 81 14
328 330 331 333 336 336 337 337 332 334 338 315 295 291 267 287 305 324 319 313 324 324 321 326 325 328 327 310 320 310 286 280 306 316 254 174 222 231 62 255 223 20 350 319 298 100 11
323 324 327 328 331 335 338 335 332 331 331 317 294 265 276 268 283 317 310 313 317 307 291 310 340 322 10 330 309 321 350 312 354 317 330 144 231 263 274 225 294 339 330 309 350 79 39
321 321 321 325 324 328 333 334 334 332 329 324 305 255 261 267 289 288 309 298 302 305 290 321 326 13 10 356 343 352 329 352 303 320 359 333 336 338 241 224 340 324 340 52 310 355 48
318 315 316 320 321 322 327 329 332 329 328 321 300 309 270 256 278 292 283 279 277 284 300 287 284 302 336 327 6 311 315 297 313 23 358 11 22 339 7 31 287 310 15 22 9 32 40
Wind_Speed_850mb
35 35 34 34 35 35 35 35 36 36 37 37 37 36 36 36 37 38 39 40 42 44 44 44 42 39 36 28 44 32 44 33 13 24 43 59 63 66 59 59 63 61 59 75 79 77 75
34 35 36 37 39 39 38 38 38 38 37 37 38 40 43 45 46 44 42 39 38 39 42 46 46 43 30 47 24 32 39 32 32 33 45 47 60 68 69 68 62 69 72 74 83 80 79
33 34 36 37 37 38 38 39 38 38 37 37 38 41 44 46 46 46 47 46 43 42 41 41 44 41 43 62 34 31 29 33 36 40 45 44 45 60 70 64 85 82 68 64 63 73 64
35 36 38 38 39 39 39 39 40 39 37 35 37 40 42 42 42 42 44 43 43 44 44 38 38 31 39 36 36 40 45 51 53 50 49 45 43 48 62 75 75 64 62 59 59 58 74
37 39 40 41 39 38 38 39 40 43 44 46 47 48 50 53 56 57 55 49 34 31 35 36 26 20 36 20 25 32 35 55 49 49 52 52 50 50 42 42 43 57 47 68 68 59 61
40 42 43 42 41 41 41 42 42 45 48 50 52 53 55 57 58 56 57 49 30 33 20 16 22 24 40 29 25 10 8 11 36 43 48 55 47 39 36 37 47 46 61 69 57 52 54
40 44 43 43 43 42 42 44 46 49 51 53 54 55 55 58 59 54 46 40 30 23 10 40 37 31 50 31 11 21 22 24 27 34 40 55 34 50 85 60 60 56 64 65 58 55 56
38 41 43 42 43 45 46 47 48 49 50 53 56 60 62 63 55 24 25 30 36 32 48 49 70 82 74 65 70 62 45 42 34 37 38 39 57 78 43 63 66 66 62 63 55 52 48
39 41 43 45 45 46 47 49 50 50 51 54 58 62 58 56 37 22 30 27 37 37 41 80 93 80 68 59 65 56 50 56 45 43 41 48 74 46 59 63 58 64 65 54 60 51 53
40 42 43 45 45 45 46 48 51 52 53 54 56 59 49 43 17 32 26 34 36 35 18 21 14 15 38 18 35 39 42 53 48 52 46 48 52 64 61 67 62 57 56 56 54 46 36
40 41 44 44 45 46 46 49 52 53 53 53 57 54 31 35 29 25 32 37 33 21 12 23 34 17 36 32 7 11 12 37 39 43 43 67 48 53 63 72 58 68 48 52 54 47 42
40 43 44 45 47 48 48 50 54 55 54 55 54 41 29 25 30 26 39 31 25 9 7 18 21 25 32 39 42 14 23 15 35 35 42 58 66 56 58 55 63 51 55 54 50 36 34
39 42 44 46 48 49 50 52 56 56 56 55 48 27 25 23 33 35 29 26 11 4 36 18 31 24 24 29 33 23 31 24 23 15 38 47 51 57 60 56 58 61 42 33 34 33 43
41 41 42 46 49 50 53 55 58 57 55 55 33 20 21 17 28 24 18 4 10 22 30 39 39 44 38 34 33 37 34 24 31 27 20 24 29 55 58 64 52 61 50 30 49 31 39
44 44 43 45 48 50 53 57 58 57 52 52 30 19 15 16 20 15 21 8 7 27 34 38 40 33 37 34 32 43 39 18 30 5 15 18 30 47 57 57 56 53 54 55 45 42 32
45 46 46 46 45 49 56 58 58 57 49 38 27 16 16 20 17 15 9 22 27 34 36 35 35 6 35 49 14 20 30 7 19 2 9 13 34 42 49 54 65 56 44 50 33 46 41
47 47 46 44 45 52 57 61 57 54 48 29 21 11 5 13 17 19 11 29 42 46 42 36 39 18 34 39 34 34 19 12 7 11 17 26 25 47 43 47 56 47 47 53 36 37 32
49 48 46 44 47 53 58 61 58 52 52 29 15 11 11 8 11 12 18 41 47 34 41 29 30 39 20 44 38 38 27 15 15 19 19 32 14 33 45 54 51 58 50 45 30 48 34
49 50 49 47 45 51 59 62 56 42 42 38 19 30 3 3 7 17 36 35 43 37 32 40 33 35 19 29 15 26 19 12 11 11 5 12 13 19 41 37 41 53 57 49 42 26 38
49 51 52 52 48 47 56 62 58 38 28 28 17 12 12 23 14 18 34 32 36 46 26 33 35 35 30 30 34 18 25 9 16 24 23 5 13 32 22 18 33 26 57 62 48 38 36
49 51 52 53 54 49 52 59 59 40 18 17 12 12 15 14 25 23 26 35 38 33 30 44 21 31 36 32 39 34 21 28 18 3 6 5 15 35 39 21 28 45 53 62 55 49 43
47 50 51 53 55 55 48 54 57 43 21 13 21 16 25 42 36 27 25 29 37 40 37 30 25 36 36 36 34 36 38 28 18 16 12 15 9 36 34 24 31 48 54 46 59 54 53
47 47 49 51 54 57 52 46 54 47 24 12 20 23 14 26 31 24 15 35 39 38 22 42 38 37 32 30 49 55 59 50 41 37 28 23 15 15 23 13 17 33 47 44 52 47 54
48 48 49 51 53 55 53 43 50 44 25 18 24 28 16 20 24 28 32 27 41 46 31 48 36 25 31 54 57 58 56 51 39 38 36 27 22 7 7 20 10 19 27 43 47 46 43
48 50 53 52 52 54 52 44 45 48 34 24 21 23 9 15 42 28 42 35 42 46 38 42 38 40 49 42 26 20 18 24 34 42 34 22 15 9 3 8 31 23 23 25 22 15 38
49 51 53 55 52 51 53 49 48 45 46 31 22 32 18 16 11 51 38 48 25 27 26 44 45 50 27 7 12 16 6 7 7 17 23 20 12 7 2 5 11 16 40 65 32 21 33
51 52 53 52 52 50 51 51 51 48 43 38 32 25 29 20 45 41 38 26 28 20 14 44 44 32 22 12 5 7 8 9 11 14 10 5 5 9 6 2 14 36 57 60 6 6 20
57 54 51 51 51 50 51 54 51 46 46 46 41 24 32 22 65 39 31 48 47 30 7 22 25 17 9 13 8 9 8 10 7 8 9 7 9 2 6 7 9 45 32 18 15 10 27
61 58 52 50 53 51 52 52 52 48 51 44 40 16 31 42 70 74 51 47 38 28 23 3 9 23 9 6 8 8 5 6 11 5 15 7 8 7 11 5 14 37 22 41 39 37 34
Wind_Direction_850mb
34 26 23 19 15 10 5 0 358 354 351 351 347 344 339 335 331 327 324 320 317 315 311 306 304 302 304 255 246 265 295 302 285 227 232 235 235 235 239 236 235 237 242 246 250 254 255
25 22 19 19 15 11 7 3 358 354 351 349 346 343 340 337 334 332 329 324 317 310 306 304 300 298 286 265 269 262 261 253 247 240 239 233 235 236 247 241 241 241 245 250 258 260 260
26 24 22 19 15 12 9 5 1 356 351 349 348 344 341 338 334 332 328 325 321 312 302 292 292 292 271 256 261 251 250 252 249 245 244 244 239 233 245 249 251 252 256 262 255 259 266
27 24 19 13 8 6 5 6 5 2 358 354 346 343 340 337 333 328 322 319 315 312 305 295 283 281 264 276 264 263 261 260 254 248 246 246 257 273 256 252 262 254 257 260 253 254 255
27 22 16 8 7 5 4 3 2 1 357 352 348 345 342 342 339 334 326 321 307 299 300 301 280 230 275 283 261 260 253 249 245 245 244 243 248 255 265 246 244 245 248 248 249 248 261
22 17 13 13 12 10 7 6 3 359 354 349 346 342 338 338 335 330 324 325 326 292 288 272 257 254 256 271 263 219 269 257 234 244 246 231 229 239 242 235 226 222 236 242 257 251 251
19 18 17 16 15 14 13 10 4 358 352 347 342 338 334 332 334 334 334 357 346 305 235 264 276 219 286 286 242 242 274 271 252 240 236 225 217 222 220 220 240 236 239 248 254 253 247
19 18 17 15 13 11 9 5 359 355 351 347 343 339 333 332 333 344 348 327 323 307 296 278 263 263 261 269 269 264 259 251 249 239 229 227 220 226 232 227 234 244 254 253 261 261 258
16 14 14 12 8 6 1 356 352 349 348 346 341 337 334 333 338 2 322 327 328 316 295 283 265 258 259 250 248 255 243 241 240 245 235 225 235 227 234 234 234 234 236 247 258 268 270
12 9 9 7 3 2 358 353 350 349 347 343 340 340 338 348 345 326 324 330 326 330 291 280 233 225 228 235 256 249 237 230 235 238 248 247 240 240 227 237 230 240 233 243 248 253 260
5 3 5 1 357 357 355 353 350 348 346 341 342 342 353 349 350 345 331 326 322 324 274 37 18 18 344 215 156 208 221 239 240 243 231 242 242 234 239 237 229 244 243 245 244 250 257
2 1 0 355 353 351 352 353 349 349 346 343 342 343 355 353 325 325 321 317 320 256 257 4 9 328 346 338 307 305 202 227 268 243 245 253 249 256 245 241 247 238 243 248 255 254 246
1 3 360 355 352 349 351 354 351 349 348 342 344 350 359 354 332 321 325 326 286 303 318 351 343 335 302 284 288 246 246 256 224 267 254 246 243 251 250 251 231 240 229 234 236 235 242
355 357 356 351 349 347 350 355 351 350 350 339 348 345 350 348 331 336 340 305 265 281 1 350 343 333 319 315 301 284 278 262 267 259 257 276 270 225 239 241 235 224 233 220 219 216 245
358 358 354 352 351 350 353 354 350 350 353 341 347 325 330 319 337 328 338 282 34 318 353 340 335 346 323 338 332 306 268 257 274 125 275 315 278 261 223 243 239 230 226 236 244 234 251
359 357 355 356 357 355 355 355 351 349 355 348 348 317 285 322 319 320 293 283 295 348 335 327 326 280 308 318 330 313 317 100 296 289 295 280 288 280 286 222 245 243 219 226 223 234 239
0 359 358 0 359 356 355 354 356 352 356 350 327 250 273 329 327 282 286 305 333 327 304 321 315 293 322 323 315 326 274 174 232 280 289 269 260 271 288 266 215 230 235 217 237 227 238
0 359 358 358 355 355 354 354 356 354 354 -0 301 277 186 346 291 268 296 332 319 320 325 314 315 319 0 306 306 295 242 9 239 327 303 295 279 258 267 273 217 232 224 230 218 219 236
359 358 356 353 351 353 354 354 354 357 353 349 302 296 209 297 328 321 315 319 320 335 343 325 323 311 318 299 320 319 339 173 227 274 289 344 244 260 258 267 259 229 221 233 237 240 218
355 356 355 354 348 347 352 355 353 359 351 343 302 310 355 333 328 306 321 318 317 327 328 319 309 312 310 325 288 271 333 276 248 297 268 337 259 263 253 314 339 284 211 230 227 211 227
350 352 354 354 353 347 347 353 356 355 1 339 286 338 357 300 324 312 305 292 315 335 340 330 316 325 325 311 310 322 310 312 314 249 237 205 269 288 257 256 304 302 284 224 223 203 222
346 347 350 352 351 351 345 348 352 354 360 331 335 340 330 302 307 306 313 319 323 328 327 315 319 317 312 310 310 315 309 297 289 271 243 219 282 301 281 215 273 288 275 266 220 200 221
344 343 343 347 349 349 346 345 350 353 357 329 337 324 308 292 305 327 320 325 313 329 307 308 307 314 305 309 311 303 294 285 280 277 263 280 302 320 249 197 321 276 236 240 211 204 213
343 342 342 342 344 346 348 344 349 347 342 303 308 314 294 294 312 325 334 317 320 322 316 314 324 307 310 319 308 295 273 260 250 253 256 262 285 270 10 61 266 242 244 251 206 197 209
332 337 340 338 339 341 344 338 344 347 332 309 295 293 284 288 310 310 335 333 320 320 315 312 328 332 325 324 315 311 317 240 232 230 231 227 257 275 206 200 295 324 0 337 261 81 14
328 330 331 333 336 336 337 337 332 334 338 315 295 291 267 287 305 324 319 313 324 324 321 326 325 328 327 310 320 310 286 280 306 316 254 174 222 231 62 255 223 20 350 319 298 100 11
323 324 327 328 331 335 338 335 332 331 331 317 294 265 276 268 283 317 310 313 317 307 291 310 340 322 10 330 309 321 350 312 354 317 330 144 231 263 274 225 294 339 330 309 350 79 39
321 321 321 325 324 328 333 334 334 332 329 324 305 255 261 267 289 288 309 298 302 305 290 321 326 13 10 356 343 352 329 352 303 320 359 333 336 338 241 224 340 324 340 52 310 355 48
318 315 316 320 321 322 327 329 332 329 328 321 300 309 270 256 278 292 283 279 277 284 300 287 284 302 336 327 6 311 315 297 313 23 358 11 22 339 7 31 287 310 15 22 9 32 40